QPF
0.06 0.05 0.03 0.02 0.02 0.02 0.01 0.01 0.01 0.00 0.01 0.00 0.01 0.02 0.02 0.02 0.02 0.03 0.05 0.04 0.06 0.04 0.03 0.02 0.03 0.04 0.05 0.06 0.08 0.09 0.09 0.08 0.11 0.09 0.09 0.10 0.10 0.09 0.08 0.07 0.05 0.05 0.05
0.09 0.06 0.05 0.05 0.02 0.01 0.01 0.00 0.01 0.00 0.00 0.00 0.01 0.01 0.02 0.01 0.01 0.02 0.02 0.03 0.04 0.04 0.02 0.02 0.02 0.03 0.05 0.07 0.08 0.09 0.08 0.07 0.09 0.08 0.08 0.08 0.09 0.07 0.05 0.04 0.05 0.08 0.08
0.09 0.07 0.06 0.05 0.03 0.01 0.00 0.00 0.00 0.00 0.00 0.00 0.00 0.01 0.01 0.01 0.01 0.01 0.01 0.03 0.04 0.03 0.03 0.02 0.03 0.04 0.05 0.08 0.10 0.11 0.08 0.07 0.08 0.08 0.08 0.06 0.05 0.05 0.06 0.05 0.03 0.06 0.08
0.08 0.08 0.05 0.04 0.02 0.01 0.01 0.01 0.01 0.00 0.00 0.00 0.00 0.00 0.00 0.01 0.01 0.01 0.01 0.02 0.02 0.02 0.02 0.02 0.02 0.04 0.06 0.09 0.11 0.12 0.09 0.06 0.07 0.06 0.05 0.05 0.05 0.05 0.07 0.05 0.04 0.05 0.06
0.03 0.04 0.04 0.03 0.01 0.01 0.01 0.01 0.01 0.01 0.01 0.01 0.00 0.00 0.01 0.01 0.01 0.02 0.02 0.02 0.01 0.01 0.02 0.04 0.04 0.05 0.09 0.14 0.16 0.12 0.08 0.06 0.06 0.04 0.04 0.05 0.06 0.05 0.04 0.05 0.04 0.04 0.05
0.02 0.03 0.03 0.02 0.01 0.01 0.01 0.01 0.01 0.02 0.02 0.02 0.01 0.01 0.01 0.01 0.01 0.02 0.02 0.01 0.01 0.01 0.02 0.03 0.05 0.06 0.09 0.13 0.13 0.10 0.08 0.07 0.06 0.06 0.06 0.07 0.07 0.06 0.06 0.06 0.05 0.05 0.04
0.02 0.02 0.03 0.03 0.02 0.01 0.00 0.01 0.01 0.01 0.02 0.03 0.04 0.03 0.03 0.02 0.02 0.02 0.02 0.01 0.01 0.02 0.03 0.03 0.05 0.07 0.11 0.14 0.13 0.09 0.08 0.07 0.07 0.07 0.08 0.08 0.07 0.06 0.05 0.06 0.06 0.06 0.04
0.01 0.01 0.01 0.01 0.01 0.01 0.01 0.01 0.01 0.01 0.01 0.05 0.10 0.08 0.05 0.03 0.03 0.03 0.02 0.02 0.03 0.03 0.03 0.03 0.04 0.05 0.08 0.10 0.10 0.08 0.08 0.07 0.08 0.07 0.06 0.06 0.05 0.05 0.06 0.06 0.06 0.07 0.05
0.01 0.01 0.01 0.01 0.01 0.01 0.00 0.01 0.01 0.01 0.01 0.05 0.15 0.12 0.05 0.03 0.02 0.02 0.02 0.02 0.02 0.02 0.03 0.04 0.04 0.04 0.06 0.08 0.08 0.07 0.07 0.07 0.06 0.05 0.05 0.06 0.04 0.04 0.06 0.07 0.06 0.06 0.04
0.01 0.01 0.01 0.01 0.00 0.00 0.00 0.00 0.00 0.01 0.01 0.05 0.10 0.06 0.02 0.01 0.02 0.02 0.01 0.01 0.02 0.02 0.03 0.03 0.03 0.04 0.05 0.07 0.06 0.05 0.06 0.05 0.03 0.03 0.04 0.04 0.04 0.04 0.05 0.06 0.06 0.05 0.05
0.01 0.01 0.01 0.01 0.01 0.00 0.00 0.00 0.00 0.01 0.00 0.01 0.01 0.01 0.01 0.01 0.01 0.01 0.01 0.01 0.02 0.02 0.03 0.03 0.03 0.03 0.03 0.04 0.04 0.04 0.03 0.02 0.02 0.02 0.02 0.02 0.03 0.04 0.04 0.05 0.06 0.06 0.08
0.01 0.01 0.01 0.01 0.01 0.01 0.01 0.01 0.01 0.01 0.01 0.02 0.02 0.02 0.02 0.02 0.02 0.02 0.02 0.03 0.04 0.04 0.04 0.03 0.02 0.02 0.02 0.03 0.03 0.03 0.02 0.02 0.02 0.02 0.02 0.02 0.03 0.04 0.06 0.11 0.12 0.11 0.10
0.03 0.03 0.02 0.02 0.02 0.02 0.02 0.02 0.02 0.02 0.03 0.03 0.02 0.03 0.03 0.02 0.02 0.02 0.03 0.06 0.06 0.05 0.03 0.02 0.02 0.02 0.01 0.01 0.01 0.02 0.03 0.02 0.02 0.03 0.04 0.05 0.05 0.05 0.07 0.09 0.10 0.10 0.08
0.05 0.03 0.02 0.02 0.03 0.04 0.02 0.02 0.02 0.02 0.03 0.03 0.03 0.03 0.03 0.02 0.03 0.03 0.05 0.07 0.07 0.05 0.02 0.02 0.02 0.03 0.03 0.02 0.02 0.04 0.04 0.04 0.05 0.06 0.06 0.04 0.03 0.03 0.03 0.03 0.05 0.05 0.03
0.08 0.05 0.05 0.06 0.04 0.04 0.03 0.02 0.02 0.02 0.03 0.03 0.03 0.03 0.03 0.03 0.04 0.04 0.06 0.08 0.07 0.05 0.04 0.04 0.03 0.03 0.04 0.03 0.03 0.03 0.04 0.05 0.06 0.05 0.04 0.04 0.03 0.02 0.02 0.02 0.02 0.02 0.02
0.12 0.12 0.10 0.10 0.07 0.07 0.06 0.03 0.02 0.03 0.02 0.02 0.02 0.02 0.03 0.04 0.05 0.06 0.07 0.08 0.06 0.05 0.04 0.04 0.03 0.04 0.03 0.03 0.04 0.03 0.03 0.05 0.05 0.03 0.02 0.02 0.02 0.02 0.02 0.02 0.02 0.02 0.02
0.13 0.10 0.08 0.07 0.07 0.07 0.06 0.04 0.04 0.03 0.03 0.02 0.01 0.02 0.03 0.04 0.05 0.05 0.05 0.04 0.04 0.04 0.04 0.04 0.03 0.03 0.04 0.05 0.04 0.04 0.03 0.02 0.02 0.03 0.03 0.02 0.02 0.02 0.02 0.02 0.02 0.02 0.03
0.07 0.05 0.05 0.05 0.06 0.08 0.07 0.06 0.05 0.04 0.03 0.02 0.01 0.02 0.03 0.04 0.05 0.05 0.05 0.05 0.04 0.04 0.04 0.04 0.04 0.04 0.04 0.05 0.05 0.06 0.05 0.03 0.03 0.03 0.03 0.03 0.03 0.03 0.02 0.02 0.01 0.01 0.01
0.06 0.05 0.06 0.09 0.11 0.10 0.09 0.07 0.05 0.05 0.04 0.02 0.01 0.01 0.02 0.02 0.03 0.04 0.05 0.05 0.05 0.05 0.05 0.05 0.05 0.05 0.04 0.06 0.06 0.06 0.06 0.05 0.04 0.03 0.03 0.03 0.03 0.03 0.03 0.02 0.01 0.01 0.01
0.13 0.12 0.12 0.10 0.07 0.06 0.05 0.05 0.05 0.04 0.03 0.02 0.01 0.02 0.02 0.03 0.04 0.05 0.06 0.07 0.06 0.05 0.06 0.05 0.05 0.05 0.05 0.05 0.05 0.05 0.04 0.04 0.03 0.03 0.03 0.04 0.03 0.03 0.02 0.01 0.01 0.01 0.02
0.15 0.16 0.13 0.09 0.07 0.04 0.04 0.04 0.04 0.03 0.02 0.02 0.02 0.02 0.02 0.04 0.05 0.06 0.07 0.07 0.06 0.05 0.03 0.03 0.03 0.03 0.03 0.04 0.04 0.04 0.03 0.02 0.02 0.01 0.01 0.02 0.03 0.02 0.02 0.02 0.02 0.01 0.03
0.09 0.08 0.08 0.07 0.06 0.05 0.04 0.04 0.04 0.04 0.04 0.04 0.04 0.05 0.05 0.05 0.06 0.06 0.06 0.06 0.04 0.03 0.02 0.02 0.02 0.02 0.02 0.02 0.02 0.02 0.02 0.02 0.02 0.01 0.02 0.03 0.03 0.02 0.02 0.02 0.02 0.02 0.03
0.06 0.06 0.05 0.04 0.04 0.05 0.05 0.06 0.07 0.07 0.06 0.06 0.07 0.07 0.07 0.07 0.06 0.06 0.06 0.05 0.04 0.03 0.03 0.02 0.01 0.01 0.02 0.01 0.02 0.01 0.01 0.02 0.02 0.01 0.02 0.03 0.02 0.01 0.02 0.02 0.03 0.03 0.03
0.04 0.05 0.04 0.04 0.05 0.07 0.07 0.07 0.07 0.06 0.05 0.04 0.04 0.04 0.05 0.04 0.03 0.04 0.04 0.04 0.03 0.02 0.02 0.01 0.01 0.02 0.02 0.02 0.02 0.02 0.02 0.02 0.02 0.02 0.02 0.02 0.02 0.02 0.02 0.02 0.02 0.02 0.03
0.04 0.05 0.05 0.04 0.04 0.04 0.05 0.05 0.06 0.06 0.05 0.05 0.05 0.04 0.04 0.03 0.03 0.02 0.02 0.02 0.02 0.02 0.02 0.01 0.02 0.02 0.02 0.03 0.04 0.03 0.02 0.02 0.02 0.02 0.02 0.01 0.02 0.02 0.02 0.02 0.02 0.02 0.02
0.02 0.02 0.02 0.02 0.03 0.03 0.04 0.04 0.05 0.05 0.05 0.04 0.03 0.04 0.03 0.02 0.02 0.03 0.03 0.02 0.02 0.01 0.01 0.02 0.02 0.03 0.03 0.04 0.04 0.05 0.05 0.04 0.03 0.03 0.02 0.02 0.02 0.02 0.03 0.03 0.03 0.03 0.03
MSLP
1013.31 1013.55 1013.70 1013.75 1013.71 1013.64 1013.57 1013.58 1013.70 1013.96 1014.34 1014.80 1015.28 1015.74 1016.11 1016.37 1016.50 1016.53 1016.50 1016.44 1016.42 1016.44 1016.52 1016.65 1016.80 1016.95 1017.05 1017.10 1017.08 1016.99 1016.86 1016.69 1016.49 1016.26 1016.00 1015.70 1015.35 1014.93 1014.46 1013.97 1013.50 1013.09 1012.79
1013.45 1013.76 1013.95 1014.02 1013.97 1013.86 1013.76 1013.74 1013.86 1014.12 1014.52 1015.00 1015.50 1015.94 1016.27 1016.45 1016.49 1016.42 1016.30 1016.18 1016.11 1016.12 1016.22 1016.39 1016.60 1016.79 1016.94 1017.01 1017.01 1016.93 1016.81 1016.67 1016.52 1016.37 1016.20 1016.01 1015.75 1015.43 1015.02 1014.56 1014.08 1013.62 1013.23
1013.32 1013.72 1013.99 1014.09 1014.07 1013.97 1013.86 1013.83 1013.94 1014.20 1014.60 1015.08 1015.58 1016.00 1016.29 1016.42 1016.39 1016.25 1016.05 1015.87 1015.77 1015.77 1015.88 1016.09 1016.33 1016.56 1016.74 1016.83 1016.85 1016.79 1016.69 1016.58 1016.49 1016.42 1016.36 1016.27 1016.14 1015.92 1015.60 1015.19 1014.72 1014.23 1013.77
1012.91 1013.42 1013.78 1013.97 1014.00 1013.93 1013.84 1013.80 1013.90 1014.15 1014.54 1015.00 1015.48 1015.88 1016.14 1016.24 1016.17 1015.98 1015.74 1015.53 1015.41 1015.40 1015.52 1015.74 1016.00 1016.25 1016.45 1016.56 1016.59 1016.55 1016.47 1016.40 1016.37 1016.37 1016.40 1016.42 1016.40 1016.30 1016.07 1015.73 1015.29 1014.80 1014.30
1012.29 1012.90 1013.37 1013.66 1013.78 1013.76 1013.69 1013.66 1013.74 1013.96 1014.31 1014.75 1015.20 1015.58 1015.82 1015.90 1015.82 1015.63 1015.38 1015.17 1015.04 1015.03 1015.14 1015.36 1015.62 1015.88 1016.08 1016.20 1016.24 1016.21 1016.16 1016.12 1016.13 1016.19 1016.29 1016.40 1016.47 1016.47 1016.34 1016.07 1015.69 1015.22 1014.71
1011.52 1012.23 1012.81 1013.21 1013.41 1013.46 1013.42 1013.40 1013.46 1013.64 1013.95 1014.34 1014.75 1015.11 1015.35 1015.44 1015.38 1015.21 1014.99 1014.79 1014.66 1014.65 1014.76 1014.97 1015.22 1015.47 1015.66 1015.78 1015.82 1015.80 1015.76 1015.74 1015.78 1015.87 1016.01 1016.18 1016.32 1016.38 1016.33 1016.14 1015.82 1015.40 1014.92
1010.71 1011.48 1012.15 1012.65 1012.94 1013.05 1013.06 1013.04 1013.08 1013.22 1013.48 1013.82 1014.20 1014.54 1014.78 1014.90 1014.87 1014.75 1014.57 1014.41 1014.31 1014.30 1014.40 1014.58 1014.81 1015.03 1015.21 1015.32 1015.36 1015.34 1015.31 1015.29 1015.33 1015.43 1015.58 1015.76 1015.93 1016.04 1016.04 1015.92 1015.68 1015.33 1014.91
1009.93 1010.73 1011.46 1012.03 1012.39 1012.57 1012.62 1012.61 1012.64 1012.74 1012.95 1013.25 1013.59 1013.92 1014.17 1014.32 1014.35 1014.29 1014.17 1014.05 1013.97 1013.97 1014.06 1014.21 1014.40 1014.59 1014.74 1014.83 1014.86 1014.85 1014.81 1014.80 1014.82 1014.90 1015.04 1015.20 1015.36 1015.48 1015.52 1015.46 1015.28 1015.02 1014.68
1009.23 1010.02 1010.76 1011.37 1011.79 1012.02 1012.10 1012.12 1012.14 1012.23 1012.40 1012.66 1012.98 1013.30 1013.58 1013.77 1013.86 1013.86 1013.80 1013.72 1013.67 1013.67 1013.73 1013.85 1014.00 1014.15 1014.27 1014.34 1014.37 1014.35 1014.31 1014.28 1014.29 1014.34 1014.44 1014.56 1014.69 1014.80 1014.85 1014.83 1014.72 1014.54 1014.30
1008.62 1009.34 1010.06 1010.67 1011.12 1011.39 1011.51 1011.56 1011.60 1011.69 1011.85 1012.10 1012.41 1012.73 1013.03 1013.26 1013.40 1013.46 1013.45 1013.41 1013.37 1013.37 1013.40 1013.48 1013.59 1013.70 1013.79 1013.85 1013.86 1013.85 1013.81 1013.78 1013.76 1013.78 1013.83 1013.91 1014.00 1014.08 1014.13 1014.13 1014.09 1013.99 1013.85
1008.05 1008.68 1009.33 1009.91 1010.35 1010.65 1010.82 1010.91 1010.99 1011.11 1011.30 1011.56 1011.87 1012.21 1012.52 1012.78 1012.97 1013.07 1013.10 1013.09 1013.06 1013.05 1013.06 1013.10 1013.17 1013.24 1013.30 1013.35 1013.36 1013.35 1013.32 1013.29 1013.26 1013.25 1013.27 1013.30 1013.35 1013.40 1013.44 1013.47 1013.47 1013.45 1013.40
1007.49 1007.98 1008.53 1009.04 1009.45 1009.76 1009.98 1010.14 1010.28 1010.46 1010.69 1010.99 1011.33 1011.69 1012.03 1012.31 1012.52 1012.65 1012.71 1012.72 1012.70 1012.68 1012.67 1012.68 1012.71 1012.75 1012.80 1012.83 1012.85 1012.85 1012.84 1012.81 1012.79 1012.77 1012.76 1012.77 1012.78 1012.81 1012.85 1012.89 1012.93 1012.97 1012.99
1006.86 1007.20 1007.61 1008.02 1008.40 1008.71 1008.97 1009.20 1009.43 1009.70 1010.00 1010.36 1010.74 1011.13 1011.49 1011.79 1012.02 1012.17 1012.25 1012.27 1012.25 1012.23 1012.20 1012.19 1012.20 1012.23 1012.27 1012.30 1012.33 1012.35 1012.35 1012.35 1012.34 1012.33 1012.31 1012.31 1012.31 1012.33 1012.37 1012.42 1012.48 1012.56 1012.63
1006.15 1006.31 1006.56 1006.86 1007.17 1007.48 1007.78 1008.09 1008.43 1008.79 1009.19 1009.62 1010.06 1010.49 1010.87 1011.19 1011.43 1011.59 1011.68 1011.71 1011.71 1011.68 1011.66 1011.65 1011.65 1011.68 1011.71 1011.75 1011.80 1011.84 1011.87 1011.89 1011.91 1011.91 1011.92 1011.92 1011.93 1011.95 1011.98 1012.03 1012.11 1012.20 1012.30
1005.33 1005.31 1005.40 1005.58 1005.82 1006.11 1006.45 1006.84 1007.27 1007.75 1008.25 1008.76 1009.27 1009.73 1010.14 1010.48 1010.73 1010.90 1011.00 1011.05 1011.07 1011.06 1011.06 1011.06 1011.08 1011.11 1011.15 1011.21 1011.27 1011.33 1011.39 1011.44 1011.48 1011.52 1011.55 1011.57 1011.59 1011.61 1011.65 1011.70 1011.77 1011.85 1011.95
1004.44 1004.26 1004.19 1004.24 1004.40 1004.67 1005.04 1005.50 1006.02 1006.60 1007.21 1007.81 1008.37 1008.88 1009.32 1009.67 1009.94 1010.12 1010.25 1010.32 1010.37 1010.40 1010.43 1010.46 1010.50 1010.56 1010.62 1010.69 1010.77 1010.85 1010.93 1011.01 1011.08 1011.15 1011.20 1011.25 1011.28 1011.31 1011.34 1011.37 1011.41 1011.46 1011.52
1003.55 1003.22 1003.01 1002.95 1003.03 1003.27 1003.66 1004.17 1004.77 1005.44 1006.13 1006.81 1007.43 1007.99 1008.45 1008.82 1009.10 1009.31 1009.46 1009.58 1009.66 1009.74 1009.82 1009.89 1009.97 1010.06 1010.15 1010.24 1010.33 1010.43 1010.52 1010.62 1010.72 1010.81 1010.88 1010.94 1010.98 1011.01 1011.02 1011.02 1011.01 1011.01 1011.01
1002.72 1002.28 1001.97 1001.81 1001.83 1002.04 1002.43 1002.97 1003.64 1004.37 1005.13 1005.86 1006.53 1007.12 1007.61 1008.01 1008.31 1008.55 1008.73 1008.88 1009.02 1009.15 1009.28 1009.41 1009.53 1009.66 1009.77 1009.88 1009.99 1010.09 1010.20 1010.31 1010.41 1010.51 1010.59 1010.66 1010.70 1010.70 1010.68 1010.64 1010.57 1010.50 1010.42
1002.04 1001.55 1001.17 1000.95 1000.92 1001.10 1001.48 1002.04 1002.73 1003.50 1004.29 1005.06 1005.77 1006.38 1006.90 1007.31 1007.63 1007.90 1008.11 1008.31 1008.50 1008.68 1008.87 1009.04 1009.21 1009.37 1009.51 1009.64 1009.75 1009.86 1009.97 1010.07 1010.18 1010.27 1010.36 1010.41 1010.43 1010.41 1010.35 1010.25 1010.12 1009.96 1009.80
1001.57 1001.08 1000.68 1000.43 1000.38 1000.53 1000.90 1001.45 1002.14 1002.91 1003.72 1004.50 1005.21 1005.84 1006.36 1006.79 1007.13 1007.42 1007.67 1007.90 1008.13 1008.36 1008.59 1008.81 1009.01 1009.20 1009.36 1009.50 1009.62 1009.73 1009.83 1009.93 1010.02 1010.11 1010.18 1010.21 1010.21 1010.16 1010.05 1009.90 1009.70 1009.47 1009.22
1001.34 1000.90 1000.53 1000.30 1000.24 1000.38 1000.72 1001.24 1001.91 1002.66 1003.45 1004.21 1004.91 1005.53 1006.05 1006.48 1006.84 1007.14 1007.42 1007.68 1007.94 1008.20 1008.45 1008.70 1008.93 1009.13 1009.31 1009.45 1009.58 1009.68 1009.78 1009.87 1009.95 1010.01 1010.06 1010.08 1010.05 1009.96 1009.82 1009.62 1009.36 1009.07 1008.76
1001.35 1001.01 1000.71 1000.52 1000.48 1000.62 1000.94 1001.43 1002.05 1002.75 1003.48 1004.21 1004.87 1005.47 1005.98 1006.40 1006.76 1007.07 1007.35 1007.62 1007.90 1008.17 1008.44 1008.70 1008.93 1009.14 1009.33 1009.48 1009.60 1009.70 1009.79 1009.87 1009.93 1009.99 1010.02 1010.01 1009.96 1009.85 1009.68 1009.45 1009.17 1008.84 1008.50
1001.57 1001.36 1001.17 1001.06 1001.06 1001.20 1001.50 1001.93 1002.49 1003.12 1003.79 1004.45 1005.06 1005.62 1006.10 1006.51 1006.86 1007.16 1007.45 1007.72 1007.99 1008.25 1008.52 1008.77 1009.00 1009.21 1009.39 1009.54 1009.66 1009.76 1009.84 1009.92 1009.98 1010.02 1010.04 1010.03 1009.96 1009.85 1009.67 1009.44 1009.15 1008.82 1008.47
1001.94 1001.89 1001.84 1001.81 1001.87 1002.02 1002.29 1002.68 1003.16 1003.71 1004.29 1004.87 1005.42 1005.92 1006.37 1006.75 1007.09 1007.38 1007.66 1007.92 1008.17 1008.42 1008.67 1008.90 1009.12 1009.31 1009.48 1009.63 1009.75 1009.85 1009.94 1010.01 1010.07 1010.12 1010.14 1010.13 1010.07 1009.96 1009.80 1009.58 1009.32 1009.02 1008.69
1002.41 1002.53 1002.60 1002.68 1002.80 1002.97 1003.22 1003.55 1003.95 1004.41 1004.90 1005.40 1005.88 1006.32 1006.73 1007.09 1007.40 1007.69 1007.95 1008.19 1008.43 1008.66 1008.88 1009.09 1009.28 1009.45 1009.61 1009.75 1009.87 1009.98 1010.08 1010.16 1010.23 1010.29 1010.32 1010.33 1010.29 1010.21 1010.08 1009.90 1009.68 1009.42 1009.14
1002.92 1003.18 1003.39 1003.56 1003.73 1003.93 1004.15 1004.43 1004.76 1005.13 1005.53 1005.95 1006.36 1006.76 1007.13 1007.46 1007.77 1008.04 1008.29 1008.53 1008.74 1008.95 1009.14 1009.32 1009.49 1009.65 1009.79 1009.93 1010.05 1010.17 1010.28 1010.38 1010.48 1010.55 1010.61 1010.63 1010.62 1010.58 1010.49 1010.35 1010.19 1009.98 1009.76
Thickness
5824 5823 5821 5817 5813 5809 5806 5803 5800 5797 5795 5790 5787 5784 5781 5782 5782 5782 5781 5779 5778 5776 5774 5773 5772 5771 5769 5767 5766 5765 5763 5762 5763 5759 5757 5760 5763 5763 5763 5764 5764 5764 5764
5820 5820 5819 5816 5812 5809 5806 5803 5800 5798 5795 5793 5790 5786 5783 5782 5781 5781 5780 5779 5777 5776 5774 5772 5771 5770 5767 5765 5763 5762 5759 5758 5759 5754 5749 5746 5750 5756 5761 5761 5760 5760 5761
5821 5820 5818 5815 5812 5809 5807 5805 5801 5799 5797 5794 5790 5786 5782 5780 5778 5777 5777 5778 5777 5775 5773 5772 5770 5768 5766 5763 5762 5760 5757 5753 5754 5754 5748 5741 5738 5744 5752 5755 5757 5757 5756
5825 5822 5819 5815 5813 5812 5810 5807 5803 5800 5797 5794 5789 5783 5778 5774 5775 5776 5776 5776 5776 5774 5773 5771 5769 5767 5765 5762 5760 5759 5756 5753 5749 5750 5750 5748 5745 5739 5739 5746 5751 5753 5753
5829 5825 5823 5820 5818 5815 5811 5807 5803 5799 5796 5793 5789 5784 5780 5777 5777 5775 5774 5773 5773 5773 5771 5770 5768 5766 5763 5761 5758 5756 5755 5752 5749 5747 5746 5744 5743 5741 5736 5735 5741 5745 5748
5829 5826 5824 5821 5817 5815 5811 5807 5802 5798 5795 5792 5788 5784 5780 5777 5774 5772 5770 5770 5769 5769 5769 5768 5766 5764 5762 5759 5756 5755 5753 5751 5749 5747 5745 5742 5738 5736 5735 5732 5733 5736 5741
5828 5823 5820 5817 5814 5812 5809 5805 5800 5796 5794 5790 5787 5784 5780 5777 5774 5771 5769 5767 5765 5765 5765 5765 5763 5761 5759 5757 5755 5753 5750 5748 5746 5744 5743 5742 5740 5738 5735 5732 5730 5731 5735
5828 5825 5821 5818 5815 5812 5808 5804 5799 5796 5793 5789 5785 5782 5779 5776 5773 5771 5769 5766 5764 5763 5763 5762 5761 5759 5757 5755 5753 5750 5748 5746 5743 5742 5741 5739 5738 5737 5735 5731 5728 5724 5726
5827 5824 5821 5817 5813 5810 5807 5804 5799 5795 5791 5788 5784 5781 5778 5774 5771 5769 5767 5765 5764 5763 5761 5759 5757 5755 5753 5752 5749 5746 5744 5742 5741 5739 5737 5735 5734 5734 5733 5731 5727 5721 5716
5824 5822 5819 5815 5812 5809 5806 5803 5800 5795 5791 5787 5783 5780 5776 5773 5770 5767 5764 5762 5761 5760 5757 5755 5753 5751 5749 5747 5744 5742 5740 5738 5737 5735 5733 5731 5730 5729 5728 5726 5724 5721 5716
5821 5820 5817 5814 5810 5807 5803 5799 5797 5793 5788 5784 5781 5777 5773 5770 5767 5763 5761 5759 5757 5755 5753 5750 5748 5745 5744 5742 5740 5738 5736 5734 5732 5730 5728 5726 5726 5724 5723 5721 5718 5716 5714
5819 5817 5813 5809 5805 5801 5799 5796 5793 5790 5786 5782 5777 5773 5770 5767 5763 5760 5758 5755 5752 5750 5748 5746 5743 5741 5739 5737 5735 5733 5731 5728 5726 5725 5722 5721 5721 5718 5716 5715 5713 5711 5710
5811 5808 5805 5802 5800 5798 5795 5792 5789 5786 5783 5779 5773 5769 5765 5762 5759 5756 5754 5751 5748 5746 5744 5741 5737 5735 5734 5732 5730 5728 5726 5724 5722 5720 5717 5716 5714 5712 5711 5709 5708 5706 5706
5803 5801 5797 5796 5795 5792 5789 5788 5785 5783 5779 5774 5769 5763 5760 5758 5755 5753 5750 5747 5744 5741 5738 5735 5733 5730 5728 5726 5725 5722 5720 5717 5716 5714 5712 5710 5708 5707 5706 5704 5702 5701 5698
5792 5792 5791 5788 5787 5785 5784 5782 5780 5777 5774 5768 5763 5759 5757 5754 5751 5748 5746 5743 5740 5737 5733 5730 5727 5725 5723 5721 5719 5717 5714 5711 5709 5708 5707 5705 5704 5703 5701 5700 5697 5695 5691
5783 5784 5785 5782 5779 5778 5777 5775 5773 5771 5767 5762 5758 5755 5752 5748 5745 5743 5740 5737 5734 5731 5727 5724 5721 5719 5718 5717 5715 5712 5708 5706 5703 5701 5700 5699 5698 5697 5696 5695 5694 5691 5687
5773 5774 5775 5775 5773 5772 5771 5768 5766 5764 5761 5756 5753 5749 5746 5742 5739 5737 5734 5731 5727 5724 5720 5718 5715 5713 5711 5710 5709 5707 5703 5700 5697 5695 5693 5693 5693 5690 5688 5687 5687 5686 5685
5765 5765 5766 5766 5766 5766 5763 5762 5759 5756 5752 5748 5745 5742 5739 5735 5733 5730 5727 5724 5721 5717 5714 5711 5709 5707 5706 5705 5702 5700 5696 5693 5691 5689 5687 5685 5684 5684 5682 5680 5678 5677 5677
5761 5761 5762 5761 5759 5758 5756 5752 5750 5747 5743 5740 5737 5735 5732 5728 5725 5722 5719 5717 5713 5710 5708 5706 5703 5701 5699 5698 5696 5693 5689 5686 5685 5683 5681 5679 5678 5678 5676 5673 5670 5670 5670
5755 5756 5755 5753 5750 5749 5747 5743 5740 5737 5734 5732 5731 5728 5726 5722 5719 5715 5712 5710 5707 5704 5702 5699 5697 5695 5693 5691 5689 5686 5682 5679 5678 5677 5676 5675 5673 5672 5669 5666 5664 5662 5663
5748 5748 5747 5743 5741 5740 5738 5734 5731 5728 5728 5725 5722 5720 5718 5715 5712 5709 5705 5701 5698 5695 5693 5691 5690 5688 5686 5684 5681 5678 5675 5673 5671 5670 5669 5668 5667 5665 5663 5661 5659 5658 5657
5738 5737 5734 5733 5733 5731 5728 5724 5721 5721 5719 5716 5713 5710 5708 5706 5704 5699 5696 5693 5689 5685 5684 5682 5680 5679 5678 5676 5674 5671 5669 5667 5665 5664 5664 5663 5661 5659 5658 5656 5655 5653 5651
5725 5724 5722 5721 5721 5720 5718 5713 5713 5712 5709 5704 5701 5700 5698 5695 5693 5690 5686 5683 5680 5677 5675 5672 5671 5670 5670 5669 5667 5665 5663 5661 5659 5658 5658 5656 5655 5653 5652 5651 5649 5647 5644
5715 5713 5711 5708 5707 5708 5707 5704 5703 5701 5697 5693 5691 5689 5688 5685 5683 5681 5678 5675 5672 5669 5667 5665 5663 5662 5660 5659 5658 5657 5655 5654 5652 5650 5649 5648 5647 5646 5645 5644 5642 5640 5638
5705 5702 5699 5697 5696 5696 5694 5694 5692 5689 5685 5682 5681 5679 5677 5675 5672 5671 5669 5667 5666 5664 5661 5658 5656 5654 5652 5652 5651 5649 5647 5645 5644 5642 5640 5638 5637 5636 5636 5635 5633 5632 5631
5693 5691 5688 5686 5686 5685 5682 5682 5681 5679 5675 5671 5671 5670 5668 5666 5663 5661 5659 5659 5657 5656 5655 5653 5651 5650 5648 5646 5643 5641 5640 5638 5636 5633 5631 5630 5629 5628 5628 5626 5625 5625 5624